RH
97 98 92 91 88 100 100 100 100 100 100 100 97 99 96 89 78 70 63 58 51 46 40 34 29 23 18 16 14 12 11 11 10 11 13 15 15 14 12 12 12 11 11
100 97 100 62 97 100 99 100 100 100 100 99 98 99 100 100 98 93 78 68 58 50 44 38 32 32 26 24 21 19 17 15 12 12 12 12 14 13 12 12 11 11 11
99 100 98 70 92 87 100 100 100 99 98 100 99 98 98 98 100 100 98 93 67 55 47 43 40 37 33 31 27 23 22 22 20 15 14 12 11 10 9 8 9 9 10
100 96 99 100 100 100 98 99 100 100 100 100 100 100 99 98 98 98 99 95 79 62 53 47 42 38 36 34 30 29 27 25 22 19 13 10 8 7 8 8 10 12 12
100 100 100 100 100 100 100 100 100 100 100 100 100 96 99 100 99 99 93 83 73 64 57 51 46 42 40 38 35 31 28 24 19 14 10 8 7 8 14 17 18 19 17
100 96 97 98 100 100 100 100 100 100 100 100 100 100 100 100 100 90 80 72 67 64 59 56 50 47 44 41 36 32 25 18 14 14 13 14 12 15 21 26 27 27 33
100 100 100 98 100 99 96 95 100 99 100 100 100 100 100 97 97 93 75 68 67 62 57 54 50 47 42 37 32 24 16 16 24 33 32 29 30 38 41 37 44 38 41
96 93 90 94 89 94 94 93 100 100 100 99 100 97 100 100 95 87 87 80 77 67 60 55 50 45 41 30 22 19 19 21 22 34 32 40 62 67 76 75 90 100 52
100 97 94 89 87 90 92 96 99 95 91 100 100 99 100 97 99 93 87 77 66 64 62 55 49 44 31 39 39 40 34 31 39 40 39 55 57 73 74 87 96 88 88
99 100 100 97 100 97 94 80 76 96 100 99 92 84 80 94 97 93 86 66 48 39 42 45 43 36 50 59 50 59 60 73 61 43 38 47 68 85 95 100 95 67 67
94 89 99 100 100 100 93 88 81 89 94 95 92 81 71 68 84 100 84 44 38 32 39 41 43 36 48 58 50 42 47 66 48 42 44 44 87 100 100 100 96 86 96
81 78 67 100 100 99 99 97 98 91 86 87 81 80 73 78 75 96 55 24 24 34 47 53 48 47 45 47 47 39 46 53 42 36 43 52 94 100 100 100 100 100 99
38 42 46 70 95 95 100 100 98 92 95 89 90 70 95 92 91 94 58 44 19 23 75 76 74 67 56 53 54 54 70 59 58 41 56 72 98 100 100 100 100 100 100
22 30 37 45 60 79 88 100 96 80 96 100 95 87 94 98 100 99 97 50 17 17 49 85 85 83 83 67 67 77 93 81 68 43 59 75 94 100 99 100 100 100 100
13 17 25 33 38 52 62 81 96 80 98 100 100 98 98 100 100 100 96 37 18 17 18 29 32 58 64 87 91 100 100 94 83 56 45 61 85 88 94 99 100 100 100
11 10 14 21 29 34 46 55 69 82 84 100 99 100 100 100 100 100 99 48 26 17 17 19 18 22 53 74 78 100 100 100 96 80 71 74 89 98 96 98 100 100 100
30 8 7 12 20 28 39 42 46 52 58 85 100 97 100 100 100 100 100 83 41 21 15 16 16 16 28 100 80 99 100 100 100 100 100 100 100 100 100 100 100 100 100
36 24 11 9 13 20 29 38 42 44 48 52 82 100 100 100 100 100 100 100 73 35 19 14 15 15 14 60 100 100 100 98 100 100 100 100 100 100 100 100 100 99 98
23 22 21 19 12 10 15 24 33 41 43 41 54 74 98 99 100 98 97 96 93 68 39 19 14 16 16 31 71 100 100 100 100 100 99 100 95 46 52 75 59 54 74
32 37 40 41 31 16 10 12 19 29 36 37 40 40 58 73 85 84 83 76 80 80 73 54 30 15 18 20 46 89 94 63 84 91 100 88 25 20 19 19 18 20 32
39 42 44 48 56 50 24 10 12 18 24 32 36 38 30 31 62 55 68 72 64 70 70 72 66 34 19 18 22 25 50 54 22 28 36 64 49 23 24 25 19 14 14
64 65 71 78 70 58 42 21 10 10 15 21 28 31 27 27 33 36 42 56 53 55 62 64 69 67 53 31 19 21 21 26 31 29 26 24 24 25 25 20 11 8 8
97 100 92 93 100 100 98 64 27 12 9 13 18 22 24 27 32 33 33 38 39 43 52 57 55 60 63 60 47 22 20 20 16 15 16 16 14 11 9 8 7 7 7
100 100 100 100 100 100 100 100 99 57 18 9 11 16 20 23 29 32 33 33 31 31 34 43 46 48 47 50 56 51 30 21 20 17 13 10 8 8 7 7 8 7 7
100 100 100 100 100 100 100 100 99 94 72 37 14 10 14 18 22 26 31 35 36 32 31 34 37 39 43 42 44 52 50 41 25 20 19 18 14 11 10 10 10 11 13
100 100 100 100 100 100 100 100 90 76 73 64 45 20 10 10 15 20 24 30 35 37 41 46 48 48 47 45 46 48 52 50 42 34 29 29 27 25 23 23 19 17 17
Wind_Speed
40 60 52 54 61 61 56 57 52 51 52 54 56 59 59 53 53 56 57 57 58 58 58 58 57 57 57 57 56 57 56 56 55 54 53 54 55 56 58 60 61 62 65
57 65 47 42 63 60 59 54 50 50 51 52 51 50 52 57 59 54 53 54 56 56 56 57 56 56 56 56 56 56 57 58 58 58 57 58 58 59 61 62 63 65 66
40 24 53 61 73 59 59 59 59 58 55 52 52 51 50 50 51 52 53 52 53 54 55 55 55 55 55 55 55 56 57 57 59 60 58 61 60 61 63 65 66 67 67
44 36 25 29 51 54 57 56 58 60 58 56 54 54 53 51 49 50 49 50 51 52 53 53 54 54 54 54 54 55 56 57 58 59 61 61 63 63 66 68 68 65 66
37 29 29 31 34 38 50 54 51 52 52 52 51 49 48 49 49 48 48 49 49 50 50 51 51 52 52 53 53 53 54 56 57 58 59 61 63 66 67 65 65 63 61
43 41 41 42 35 33 40 51 54 53 52 48 46 48 47 46 45 46 46 46 46 47 48 49 50 51 51 52 53 54 54 55 54 55 56 54 55 54 55 55 54 53 53
40 46 44 42 42 41 42 50 53 48 48 46 44 47 48 46 44 46 46 44 44 44 46 48 49 50 51 52 52 52 51 50 48 47 46 45 46 47 50 53 56 56 53
27 36 44 43 42 44 46 38 45 48 48 46 45 45 49 46 45 43 42 43 44 45 47 49 50 51 50 49 49 48 50 51 49 51 46 46 47 52 51 50 52 51 53
25 25 31 40 44 42 42 42 42 43 48 51 48 39 53 50 49 45 43 43 44 47 49 50 49 47 45 44 42 43 45 46 47 48 49 49 51 51 50 52 51 48 46
29 30 28 29 32 38 43 44 43 47 48 44 44 42 40 47 48 46 44 40 42 43 44 47 47 46 44 41 34 33 34 36 38 47 52 53 51 50 50 50 52 47 45
40 34 34 34 33 30 33 42 43 47 48 49 50 47 43 44 46 45 42 38 41 42 43 43 46 44 48 46 43 39 38 40 37 41 48 50 51 50 50 51 48 47 49
45 42 39 41 39 36 32 32 38 42 46 48 48 46 44 44 46 44 36 36 36 37 39 41 41 41 43 44 45 42 39 41 38 40 42 41 44 48 46 49 52 49 43
50 49 46 43 45 40 41 36 35 33 42 46 49 47 43 42 46 43 39 36 34 32 34 38 38 37 38 41 41 39 39 37 32 34 35 35 37 42 45 45 45 44 41
54 54 49 45 46 46 45 45 35 33 34 39 45 47 45 44 45 44 40 37 34 33 30 32 34 35 34 37 39 41 38 37 28 27 28 31 35 38 37 37 36 44 47
53 57 56 51 47 49 49 47 47 42 40 38 41 44 45 44 44 46 43 38 36 33 31 30 29 30 32 32 34 34 35 35 31 24 24 27 32 38 40 41 42 45 48
44 54 59 58 51 50 51 51 51 52 49 39 41 39 40 43 44 44 44 41 36 34 34 31 28 26 26 31 35 36 33 29 26 20 21 20 24 27 29 33 39 44 47
32 41 50 60 59 53 53 53 52 52 45 47 40 38 39 41 41 41 41 41 39 35 35 33 31 29 26 28 33 34 34 33 26 25 23 23 19 18 18 21 23 24 23
24 27 38 49 58 59 56 56 55 52 48 44 44 43 39 39 39 39 38 38 39 37 34 32 33 28 29 23 34 32 30 33 33 32 28 26 25 26 27 26 26 27 28
16 16 22 31 45 55 59 59 58 56 53 50 47 45 40 41 39 38 39 39 37 38 37 33 31 31 29 30 26 30 28 31 33 34 34 32 30 30 31 31 31 32 31
12 11 11 14 22 38 55 62 62 60 58 54 53 47 44 43 44 43 39 38 38 36 37 38 34 32 31 31 31 28 24 29 27 26 34 31 30 31 31 31 32 33 33
13 14 15 16 17 20 33 52 63 64 61 59 58 54 48 47 47 46 44 42 40 38 37 37 38 36 32 33 33 35 34 33 32 32 30 30 33 35 34 34 35 34 34
9 11 13 15 17 18 22 32 48 61 64 62 60 58 53 50 48 46 46 47 45 43 41 39 38 38 38 36 35 35 35 35 36 37 37 37 37 38 38 38 37 37 37
7 7 5 4 3 4 8 16 27 40 55 63 63 60 57 53 51 50 49 48 48 47 46 44 43 40 39 39 39 39 38 38 39 39 40 40 40 40 40 40 40 41 42
8 8 8 8 7 6 6 7 11 20 31 45 59 62 59 57 54 52 50 50 49 49 50 49 47 46 45 44 43 42 43 43 43 42 42 42 43 43 43 42 43 45 46
9 11 12 11 10 9 8 8 9 12 16 24 33 45 56 59 57 53 51 49 48 49 49 50 51 50 49 48 48 47 46 46 46 46 45 46 46 46 46 46 47 47 48
9 12 13 14 14 14 12 11 11 11 13 16 20 26 35 46 53 54 52 50 48 46 45 46 47 47 47 48 49 49 49 48 48 48 48 48 48 48 48 49 49 49 50
Wind_Direction
218 219 207 221 222 222 223 220 219 222 225 228 230 230 226 227 233 234 235 237 239 240 243 244 246 248 248 249 251 253 254 255 256 256 258 262 265 266 267 267 268 268 267
205 229 210 213 219 217 222 219 217 221 225 229 231 232 230 231 230 232 236 239 241 242 243 245 247 248 249 250 251 253 255 257 258 258 260 262 265 267 268 269 269 270 268
210 217 222 230 228 224 220 223 222 224 225 227 232 234 234 234 233 234 236 238 242 242 243 244 245 246 248 249 251 253 256 258 261 262 262 265 267 269 271 271 270 269 268
226 216 223 229 218 216 220 227 230 229 231 235 234 236 236 236 235 235 236 239 241 244 245 246 246 247 247 249 252 255 258 261 263 266 267 268 270 272 273 273 270 268 267
215 227 232 229 217 220 213 222 226 226 226 227 228 229 232 235 235 236 237 239 241 243 245 246 248 250 251 252 254 258 261 264 267 270 273 273 275 275 274 269 267 265 262
232 234 236 240 232 226 225 218 223 225 225 226 231 231 231 232 236 237 237 239 241 242 244 246 247 250 252 254 257 259 262 265 269 273 274 277 278 275 272 270 268 269 261
231 228 233 240 238 225 223 225 224 225 220 228 230 229 232 229 231 235 236 237 239 242 243 244 246 247 250 253 256 260 262 264 267 270 274 275 274 274 271 269 268 267 263
230 230 232 232 236 235 229 222 222 227 228 229 233 234 232 229 230 231 234 237 238 240 241 242 243 246 250 254 255 259 262 262 266 266 275 277 273 269 265 267 270 263 262
237 234 225 227 232 236 235 232 230 228 231 234 237 237 234 227 229 229 230 235 239 242 243 245 246 248 248 251 254 261 264 264 262 263 273 272 269 265 263 267 262 269 253
234 237 239 230 227 230 232 228 229 230 229 235 233 233 232 234 230 230 230 235 239 242 242 242 243 243 241 245 252 261 264 267 271 271 273 272 267 261 263 262 258 262 254
232 236 236 236 232 228 228 231 231 231 232 233 236 240 238 236 232 233 229 236 240 242 241 242 243 244 241 248 252 259 265 264 279 279 268 266 262 260 256 254 253 258 262
233 235 240 234 234 235 231 226 221 229 230 232 233 234 235 229 232 231 228 235 240 241 242 243 245 247 248 249 252 258 266 266 276 290 274 268 261 254 256 254 253 252 256
241 241 240 235 234 233 230 228 226 230 226 228 226 230 230 229 225 228 228 234 241 246 246 246 249 254 255 254 253 252 259 264 274 286 280 275 256 254 252 248 250 248 252
241 240 239 234 234 233 234 226 231 237 231 225 226 226 229 224 230 230 230 232 239 243 247 251 254 258 262 257 251 252 258 261 266 277 279 275 259 247 246 244 249 253 256
240 240 238 236 234 233 235 236 234 239 234 233 226 225 227 224 228 229 231 230 236 241 245 250 255 259 267 258 258 255 252 251 256 261 272 269 261 253 249 245 244 246 249
235 238 238 237 235 234 233 237 235 236 240 233 227 225 224 226 225 226 227 228 235 241 244 246 254 259 270 256 255 252 242 242 249 251 255 255 254 254 256 256 255 253 251
243 240 240 237 235 233 232 234 237 237 237 235 224 225 225 224 225 223 224 226 232 238 244 246 250 256 272 256 253 254 252 244 248 248 252 256 246 247 244 241 237 238 244
232 232 230 224 228 230 228 229 233 235 234 234 232 225 226 226 226 226 227 230 232 236 242 245 249 258 257 276 247 246 250 253 255 251 252 253 256 266 258 253 253 257 262
221 231 229 227 222 220 223 226 228 232 233 234 231 230 230 230 230 229 230 230 232 235 240 243 247 249 256 256 275 246 247 250 253 252 255 255 263 266 265 263 262 265 270
216 229 232 234 233 230 223 220 224 227 231 233 233 232 231 234 232 234 234 234 234 235 239 243 245 247 251 252 254 264 257 258 262 266 255 252 264 268 271 273 274 274 273
225 238 246 250 258 252 236 227 221 222 226 230 232 234 235 235 233 236 239 240 239 237 239 242 244 245 249 251 252 253 256 259 259 255 257 258 262 268 270 272 274 276 277
238 247 258 266 267 259 242 233 229 222 221 225 229 232 235 237 236 234 235 238 240 240 239 240 244 247 249 252 254 255 256 256 256 260 261 262 263 265 267 271 276 277 277
245 251 265 271 240 248 249 232 226 227 226 222 224 229 232 234 236 234 234 234 238 242 242 242 244 247 249 251 253 256 257 258 259 260 261 263 265 267 269 270 273 276 277
240 235 239 243 240 241 238 241 233 224 224 228 225 225 228 231 233 235 234 235 238 242 243 245 247 249 251 252 253 255 258 259 259 261 263 265 266 268 271 272 273 274 276
242 245 248 251 252 252 246 239 243 240 230 224 227 232 228 228 231 233 236 237 238 241 244 246 247 249 251 252 254 255 256 259 261 262 263 265 266 268 271 273 275 277 279
248 248 250 250 251 253 256 250 241 237 235 230 224 225 232 234 230 231 234 237 239 241 244 247 249 251 253 254 255 257 259 261 261 263 265 267 269 270 271 272 273 275 277